Location: Newark
(7.0858°N, 171.3717°E)
Time: 21:02:12
(UTC+00:00)

Tiros 1 - Pass Details

Date: 26 November 2020
Orbit: 630 x 663 km, 48.4° (Epoch: 18 January)

Event Time Altitude Azimuth Distance (km) Brightness Sun altitude
Rises 12:47:45 0° 330° (NNW) 2,924 - -74.7°
Reaches altitude 10° 12:50:10 10° 336° (NNW) 2,011 - -74.4°
Maximum altitude 12:54:36 46° 50° (NE) 845 - -73.9°
Drops below altitude 10° 12:59:01 10° 124° (ESE) 2,001 - -73.4°
Sets 13:01:24 0° 130° (SE) 2,907 - -73.1°
